QPF
0.16 0.19 0.16 0.15 0.21 0.28 0.32 0.36 0.38 0.36 0.32 0.29 0.26 0.21 0.15 0.10 0.06 0.05 0.05 0.07 0.08 0.13 0.15 0.12 0.08 0.06 0.04 0.02 0.02 0.02 0.03 0.04 0.03 0.01 0.01 0.01 0.01 0.02 0.01 0.00 0.00 0.00 0.00
0.07 0.08 0.11 0.11 0.13 0.16 0.19 0.26 0.36 0.44 0.47 0.44 0.39 0.35 0.27 0.20 0.15 0.13 0.10 0.10 0.11 0.14 0.14 0.12 0.10 0.08 0.06 0.03 0.02 0.02 0.02 0.04 0.04 0.02 0.02 0.02 0.02 0.01 0.01 0.01 0.00 0.00 0.00
0.04 0.03 0.05 0.05 0.06 0.08 0.10 0.13 0.18 0.28 0.36 0.42 0.42 0.39 0.37 0.32 0.26 0.21 0.20 0.16 0.11 0.11 0.13 0.11 0.10 0.09 0.08 0.05 0.04 0.03 0.02 0.02 0.02 0.02 0.01 0.02 0.02 0.01 0.01 0.01 0.01 0.00 0.00
0.02 0.02 0.02 0.03 0.04 0.04 0.06 0.09 0.12 0.18 0.24 0.30 0.33 0.35 0.36 0.34 0.29 0.25 0.24 0.21 0.15 0.11 0.12 0.13 0.11 0.09 0.08 0.06 0.05 0.05 0.03 0.02 0.02 0.01 0.01 0.01 0.02 0.02 0.01 0.01 0.01 0.01 0.00
0.01 0.01 0.02 0.02 0.02 0.03 0.05 0.09 0.15 0.20 0.27 0.30 0.30 0.31 0.33 0.33 0.29 0.26 0.24 0.21 0.18 0.15 0.13 0.13 0.14 0.11 0.09 0.07 0.08 0.09 0.08 0.05 0.02 0.01 0.01 0.01 0.01 0.02 0.02 0.01 0.02 0.01 0.01
0.00 0.01 0.01 0.02 0.03 0.03 0.05 0.09 0.13 0.19 0.24 0.27 0.29 0.28 0.26 0.23 0.21 0.19 0.18 0.19 0.16 0.14 0.14 0.14 0.13 0.11 0.12 0.11 0.10 0.10 0.11 0.09 0.06 0.03 0.01 0.01 0.01 0.01 0.01 0.01 0.02 0.02 0.01
0.00 0.00 0.00 0.01 0.03 0.04 0.05 0.07 0.10 0.14 0.17 0.20 0.23 0.23 0.20 0.18 0.18 0.15 0.13 0.13 0.11 0.11 0.13 0.13 0.12 0.11 0.08 0.07 0.06 0.06 0.08 0.09 0.08 0.05 0.03 0.03 0.02 0.01 0.00 0.00 0.01 0.02 0.03
0.00 0.00 0.00 0.00 0.01 0.02 0.03 0.05 0.06 0.08 0.12 0.19 0.21 0.21 0.18 0.16 0.15 0.11 0.10 0.07 0.06 0.08 0.10 0.10 0.10 0.11 0.11 0.07 0.03 0.03 0.06 0.08 0.10 0.09 0.06 0.03 0.02 0.02 0.01 0.01 0.01 0.02 0.02
0.00 0.00 0.00 0.00 0.01 0.02 0.03 0.05 0.06 0.07 0.09 0.12 0.18 0.23 0.22 0.16 0.12 0.12 0.10 0.07 0.06 0.06 0.08 0.12 0.10 0.09 0.09 0.07 0.05 0.03 0.04 0.05 0.08 0.09 0.09 0.05 0.03 0.02 0.01 0.01 0.01 0.01 0.01
0.00 0.00 0.00 0.00 0.00 0.01 0.02 0.05 0.07 0.07 0.06 0.06 0.09 0.16 0.19 0.16 0.13 0.12 0.13 0.13 0.12 0.10 0.10 0.10 0.10 0.10 0.09 0.06 0.04 0.03 0.02 0.02 0.04 0.08 0.10 0.07 0.04 0.02 0.02 0.02 0.03 0.03 0.02
0.00 0.00 0.00 0.00 0.00 0.00 0.01 0.02 0.04 0.07 0.07 0.05 0.06 0.08 0.11 0.11 0.11 0.12 0.11 0.11 0.12 0.10 0.10 0.09 0.09 0.09 0.08 0.06 0.04 0.03 0.02 0.02 0.02 0.03 0.06 0.06 0.04 0.03 0.02 0.02 0.05 0.06 0.03
0.00 0.00 0.00 0.00 0.00 0.00 0.00 0.01 0.01 0.03 0.05 0.05 0.06 0.06 0.09 0.12 0.13 0.13 0.08 0.05 0.07 0.07 0.06 0.06 0.07 0.07 0.06 0.06 0.03 0.02 0.02 0.02 0.02 0.01 0.02 0.02 0.03 0.03 0.02 0.02 0.05 0.07 0.08
0.00 0.00 0.00 0.00 0.00 0.00 0.00 0.00 0.00 0.01 0.02 0.03 0.05 0.06 0.07 0.09 0.13 0.13 0.10 0.07 0.05 0.05 0.06 0.04 0.03 0.04 0.04 0.03 0.02 0.02 0.02 0.02 0.01 0.01 0.01 0.01 0.01 0.01 0.02 0.02 0.04 0.07 0.09
0.00 0.00 0.00 0.00 0.00 0.00 0.00 0.00 0.00 0.00 0.00 0.01 0.02 0.04 0.05 0.07 0.11 0.14 0.15 0.14 0.10 0.08 0.09 0.06 0.03 0.02 0.02 0.02 0.01 0.01 0.01 0.02 0.01 0.01 0.01 0.00 0.00 0.01 0.01 0.01 0.01 0.03 0.04
0.00 0.00 0.00 0.00 0.00 0.00 0.00 0.00 0.00 0.00 0.00 0.00 0.01 0.02 0.03 0.04 0.07 0.10 0.14 0.19 0.19 0.13 0.09 0.07 0.05 0.04 0.03 0.02 0.01 0.01 0.01 0.01 0.01 0.01 0.00 0.00 0.00 0.00 0.01 0.01 0.01 0.01 0.01
0.00 0.00 0.00 0.00 0.00 0.00 0.00 0.00 0.00 0.00 0.00 0.00 0.00 0.00 0.01 0.02 0.04 0.08 0.12 0.16 0.20 0.20 0.12 0.07 0.07 0.07 0.06 0.03 0.02 0.01 0.01 0.01 0.01 0.00 0.00 0.00 0.00 0.00 0.01 0.00 0.00 0.00 0.01
0.00 0.00 0.00 0.00 0.00 0.00 0.00 0.00 0.00 0.00 0.00 0.00 0.00 0.00 0.00 0.01 0.02 0.04 0.08 0.10 0.15 0.19 0.15 0.11 0.14 0.16 0.13 0.08 0.04 0.03 0.01 0.01 0.00 0.00 0.00 0.00 0.00 0.00 0.00 0.00 0.00 0.00 0.01
0.00 0.00 0.00 0.00 0.00 0.00 0.00 0.00 0.00 0.00 0.00 0.00 0.00 0.00 0.00 0.00 0.01 0.02 0.05 0.08 0.11 0.16 0.16 0.15 0.20 0.25 0.21 0.17 0.11 0.06 0.01 0.01 0.00 0.00 0.00 0.00 0.00 0.00 0.00 0.00 0.00 0.00 0.01
0.00 0.00 0.00 0.00 0.00 0.00 0.00 0.00 0.00 0.00 0.00 0.01 0.01 0.01 0.01 0.00 0.00 0.01 0.02 0.05 0.09 0.14 0.15 0.17 0.22 0.29 0.34 0.30 0.17 0.08 0.03 0.01 0.00 0.00 0.00 0.00 0.00 0.00 0.00 0.00 0.00 0.00 0.00
0.00 0.00 0.00 0.00 0.00 0.00 0.00 0.00 0.00 0.00 0.01 0.01 0.01 0.01 0.01 0.01 0.00 0.00 0.01 0.03 0.07 0.12 0.15 0.16 0.22 0.31 0.36 0.38 0.25 0.10 0.04 0.01 0.00 0.00 0.01 0.01 0.01 0.01 0.01 0.01 0.00 0.00 0.00
0.00 0.00 0.00 0.00 0.00 0.00 0.00 0.00 0.00 0.00 0.01 0.01 0.01 0.01 0.01 0.01 0.01 0.00 0.00 0.01 0.04 0.08 0.12 0.16 0.20 0.30 0.36 0.33 0.25 0.14 0.06 0.03 0.01 0.00 0.00 0.01 0.00 0.00 0.01 0.01 0.01 0.01 0.01
0.00 0.00 0.00 0.00 0.00 0.00 0.00 0.00 0.00 0.00 0.01 0.01 0.02 0.02 0.01 0.01 0.02 0.01 0.01 0.01 0.02 0.05 0.08 0.13 0.19 0.24 0.31 0.32 0.30 0.27 0.12 0.04 0.02 0.01 0.00 0.01 0.01 0.00 0.01 0.00 0.01 0.01 0.01
0.00 0.00 0.00 0.00 0.00 0.00 0.00 0.00 0.00 0.00 0.01 0.01 0.02 0.02 0.02 0.01 0.02 0.02 0.02 0.02 0.01 0.02 0.05 0.09 0.13 0.19 0.28 0.36 0.36 0.32 0.21 0.10 0.04 0.01 0.00 0.01 0.01 0.01 0.01 0.01 0.02 0.01 0.01
0.00 0.00 0.00 0.00 0.00 0.00 0.00 0.00 0.00 0.00 0.01 0.01 0.03 0.03 0.02 0.02 0.03 0.05 0.04 0.02 0.02 0.01 0.02 0.05 0.08 0.14 0.23 0.34 0.40 0.41 0.39 0.23 0.09 0.03 0.00 0.00 0.01 0.01 0.01 0.01 0.03 0.02 0.01
0.00 0.00 0.00 0.00 0.00 0.00 0.00 0.00 0.00 0.00 0.01 0.02 0.03 0.04 0.05 0.04 0.03 0.06 0.06 0.04 0.03 0.02 0.01 0.02 0.05 0.10 0.19 0.29 0.38 0.39 0.38 0.31 0.17 0.05 0.01 0.00 0.00 0.01 0.01 0.01 0.02 0.03 0.01
0.00 0.00 0.00 0.00 0.01 0.01 0.01 0.01 0.01 0.01 0.02 0.03 0.04 0.05 0.07 0.06 0.05 0.06 0.07 0.06 0.04 0.02 0.02 0.02 0.03 0.07 0.14 0.25 0.33 0.33 0.31 0.27 0.20 0.09 0.02 0.00 0.00 0.00 0.00 0.01 0.01 0.01 0.01
MSLP
1013.83 1013.79 1013.70 1013.56 1013.41 1013.27 1013.15 1013.05 1012.96 1012.88 1012.82 1012.79 1012.78 1012.82 1012.91 1013.04 1013.21 1013.41 1013.60 1013.77 1013.93 1014.08 1014.23 1014.41 1014.64 1014.94 1015.32 1015.76 1016.24 1016.73 1017.20 1017.64 1018.05 1018.42 1018.77 1019.13 1019.49 1019.86 1020.24 1020.60 1020.92 1021.19 1021.41
1013.60 1013.57 1013.49 1013.39 1013.27 1013.15 1013.03 1012.91 1012.78 1012.65 1012.54 1012.45 1012.40 1012.41 1012.47 1012.59 1012.75 1012.93 1013.11 1013.27 1013.40 1013.53 1013.67 1013.85 1014.08 1014.38 1014.76 1015.21 1015.68 1016.17 1016.65 1017.10 1017.52 1017.93 1018.33 1018.74 1019.17 1019.60 1020.03 1020.43 1020.78 1021.07 1021.30
1013.39 1013.35 1013.29 1013.24 1013.17 1013.08 1012.98 1012.84 1012.68 1012.51 1012.33 1012.18 1012.08 1012.05 1012.09 1012.19 1012.33 1012.49 1012.64 1012.78 1012.90 1013.01 1013.14 1013.31 1013.54 1013.85 1014.23 1014.67 1015.15 1015.63 1016.10 1016.55 1016.98 1017.41 1017.84 1018.29 1018.76 1019.24 1019.71 1020.16 1020.54 1020.86 1021.11
1013.20 1013.15 1013.12 1013.10 1013.08 1013.04 1012.95 1012.82 1012.63 1012.40 1012.17 1011.97 1011.82 1011.74 1011.74 1011.81 1011.93 1012.06 1012.19 1012.30 1012.40 1012.49 1012.61 1012.78 1013.02 1013.33 1013.72 1014.16 1014.63 1015.10 1015.56 1016.01 1016.43 1016.86 1017.30 1017.77 1018.26 1018.77 1019.28 1019.75 1020.17 1020.53 1020.82
1013.06 1012.98 1012.96 1012.98 1013.00 1012.99 1012.93 1012.78 1012.57 1012.31 1012.03 1011.78 1011.58 1011.46 1011.43 1011.47 1011.55 1011.66 1011.76 1011.84 1011.91 1011.98 1012.08 1012.25 1012.48 1012.80 1013.19 1013.64 1014.10 1014.57 1015.02 1015.45 1015.86 1016.28 1016.71 1017.18 1017.68 1018.20 1018.73 1019.23 1019.68 1020.07 1020.40
1012.95 1012.84 1012.82 1012.86 1012.91 1012.93 1012.87 1012.73 1012.50 1012.21 1011.89 1011.60 1011.37 1011.22 1011.16 1011.17 1011.22 1011.29 1011.34 1011.39 1011.42 1011.46 1011.54 1011.69 1011.92 1012.24 1012.63 1013.07 1013.54 1014.00 1014.44 1014.86 1015.26 1015.66 1016.08 1016.54 1017.03 1017.55 1018.08 1018.60 1019.08 1019.50 1019.88
1012.88 1012.73 1012.69 1012.73 1012.80 1012.83 1012.78 1012.64 1012.40 1012.09 1011.76 1011.45 1011.20 1011.03 1010.94 1010.92 1010.94 1010.97 1010.98 1010.97 1010.95 1010.95 1010.99 1011.10 1011.31 1011.62 1012.00 1012.44 1012.90 1013.36 1013.79 1014.21 1014.60 1014.99 1015.41 1015.86 1016.34 1016.86 1017.39 1017.91 1018.41 1018.87 1019.28
1012.83 1012.64 1012.58 1012.61 1012.68 1012.71 1012.67 1012.52 1012.29 1011.98 1011.64 1011.33 1011.08 1010.90 1010.80 1010.76 1010.74 1010.72 1010.67 1010.60 1010.52 1010.45 1010.43 1010.49 1010.66 1010.92 1011.28 1011.70 1012.16 1012.61 1013.05 1013.47 1013.87 1014.27 1014.69 1015.14 1015.63 1016.15 1016.68 1017.22 1017.73 1018.21 1018.66
1012.80 1012.57 1012.49 1012.51 1012.56 1012.59 1012.54 1012.40 1012.17 1011.88 1011.56 1011.27 1011.03 1010.86 1010.75 1010.69 1010.63 1010.56 1010.45 1010.30 1010.14 1009.99 1009.89 1009.87 1009.97 1010.18 1010.49 1010.88 1011.31 1011.76 1012.21 1012.64 1013.06 1013.49 1013.94 1014.41 1014.92 1015.45 1016.00 1016.54 1017.07 1017.57 1018.04
1012.78 1012.54 1012.43 1012.43 1012.46 1012.47 1012.42 1012.29 1012.07 1011.80 1011.51 1011.25 1011.03 1010.88 1010.77 1010.69 1010.61 1010.48 1010.30 1010.08 1009.83 1009.58 1009.39 1009.29 1009.30 1009.43 1009.67 1010.01 1010.41 1010.84 1011.29 1011.74 1012.20 1012.67 1013.17 1013.68 1014.23 1014.79 1015.35 1015.91 1016.45 1016.96 1017.44
1012.77 1012.52 1012.41 1012.37 1012.38 1012.37 1012.31 1012.18 1011.97 1011.73 1011.47 1011.25 1011.06 1010.93 1010.83 1010.74 1010.63 1010.45 1010.22 1009.92 1009.59 1009.26 1008.98 1008.77 1008.69 1008.73 1008.89 1009.16 1009.51 1009.91 1010.36 1010.83 1011.33 1011.85 1012.40 1012.97 1013.56 1014.15 1014.75 1015.32 1015.87 1016.38 1016.86
1012.77 1012.53 1012.40 1012.34 1012.31 1012.28 1012.19 1012.05 1011.86 1011.64 1011.41 1011.22 1011.07 1010.96 1010.87 1010.78 1010.65 1010.45 1010.17 1009.83 1009.43 1009.03 1008.67 1008.38 1008.20 1008.15 1008.22 1008.41 1008.70 1009.07 1009.50 1009.98 1010.51 1011.07 1011.67 1012.29 1012.92 1013.55 1014.17 1014.75 1015.30 1015.81 1016.29
1012.76 1012.53 1012.39 1012.30 1012.24 1012.16 1012.05 1011.89 1011.69 1011.49 1011.29 1011.13 1011.01 1010.92 1010.85 1010.76 1010.63 1010.42 1010.13 1009.76 1009.34 1008.91 1008.49 1008.14 1007.89 1007.76 1007.75 1007.86 1008.08 1008.40 1008.80 1009.27 1009.81 1010.40 1011.03 1011.68 1012.34 1012.99 1013.61 1014.20 1014.73 1015.23 1015.69
1012.72 1012.50 1012.35 1012.23 1012.12 1012.00 1011.85 1011.67 1011.47 1011.26 1011.08 1010.94 1010.84 1010.78 1010.73 1010.66 1010.54 1010.35 1010.07 1009.72 1009.31 1008.87 1008.45 1008.07 1007.77 1007.58 1007.51 1007.55 1007.71 1007.97 1008.33 1008.78 1009.30 1009.89 1010.52 1011.17 1011.83 1012.47 1013.08 1013.64 1014.15 1014.62 1015.07
1012.62 1012.42 1012.25 1012.10 1011.94 1011.77 1011.59 1011.38 1011.16 1010.96 1010.79 1010.66 1010.58 1010.54 1010.51 1010.46 1010.37 1010.21 1009.98 1009.67 1009.30 1008.91 1008.51 1008.14 1007.84 1007.63 1007.51 1007.50 1007.60 1007.81 1008.12 1008.53 1009.02 1009.57 1010.18 1010.80 1011.42 1012.02 1012.59 1013.10 1013.57 1014.00 1014.42
1012.44 1012.24 1012.06 1011.87 1011.68 1011.47 1011.25 1011.02 1010.79 1010.59 1010.42 1010.31 1010.24 1010.21 1010.20 1010.18 1010.13 1010.02 1009.84 1009.60 1009.31 1008.98 1008.64 1008.32 1008.05 1007.84 1007.71 1007.67 1007.73 1007.90 1008.16 1008.52 1008.97 1009.47 1010.02 1010.59 1011.15 1011.68 1012.17 1012.61 1013.02 1013.40 1013.78
1012.15 1011.95 1011.75 1011.54 1011.33 1011.10 1010.86 1010.61 1010.38 1010.18 1010.03 1009.92 1009.87 1009.85 1009.86 1009.86 1009.84 1009.78 1009.67 1009.50 1009.29 1009.04 1008.79 1008.54 1008.31 1008.14 1008.02 1007.98 1008.03 1008.17 1008.40 1008.72 1009.12 1009.57 1010.05 1010.55 1011.03 1011.47 1011.87 1012.23 1012.56 1012.88 1013.22
1011.74 1011.54 1011.33 1011.11 1010.89 1010.65 1010.41 1010.18 1009.95 1009.77 1009.62 1009.53 1009.48 1009.47 1009.49 1009.51 1009.52 1009.49 1009.44 1009.34 1009.21 1009.05 1008.87 1008.70 1008.54 1008.41 1008.33 1008.32 1008.37 1008.51 1008.73 1009.03 1009.39 1009.80 1010.23 1010.65 1011.05 1011.41 1011.72 1011.99 1012.24 1012.50 1012.80
1011.21 1011.01 1010.80 1010.59 1010.37 1010.15 1009.93 1009.71 1009.51 1009.34 1009.21 1009.13 1009.09 1009.08 1009.10 1009.12 1009.15 1009.15 1009.13 1009.09 1009.02 1008.93 1008.83 1008.73 1008.64 1008.57 1008.54 1008.56 1008.65 1008.81 1009.04 1009.34 1009.70 1010.09 1010.49 1010.87 1011.21 1011.50 1011.74 1011.94 1012.13 1012.32 1012.57
1010.58 1010.38 1010.18 1009.98 1009.78 1009.59 1009.39 1009.20 1009.03 1008.89 1008.77 1008.70 1008.66 1008.64 1008.66 1008.68 1008.70 1008.72 1008.73 1008.72 1008.70 1008.66 1008.62 1008.58 1008.55 1008.54 1008.57 1008.64 1008.77 1008.97 1009.24 1009.58 1009.96 1010.36 1010.77 1011.14 1011.47 1011.74 1011.94 1012.09 1012.23 1012.38 1012.58
1009.89 1009.69 1009.49 1009.31 1009.13 1008.96 1008.79 1008.63 1008.48 1008.35 1008.25 1008.18 1008.13 1008.11 1008.11 1008.13 1008.15 1008.17 1008.19 1008.21 1008.22 1008.22 1008.23 1008.24 1008.25 1008.30 1008.38 1008.50 1008.69 1008.95 1009.28 1009.66 1010.10 1010.56 1011.01 1011.43 1011.78 1012.07 1012.28 1012.43 1012.55 1012.67 1012.84
1009.18 1008.96 1008.77 1008.59 1008.42 1008.26 1008.10 1007.95 1007.82 1007.69 1007.59 1007.51 1007.46 1007.42 1007.41 1007.42 1007.44 1007.47 1007.50 1007.54 1007.58 1007.62 1007.66 1007.71 1007.78 1007.86 1007.99 1008.17 1008.41 1008.73 1009.12 1009.58 1010.09 1010.63 1011.16 1011.66 1012.09 1012.44 1012.71 1012.91 1013.05 1013.18 1013.33
1008.48 1008.24 1008.03 1007.84 1007.66 1007.49 1007.32 1007.17 1007.02 1006.88 1006.76 1006.67 1006.60 1006.55 1006.53 1006.53 1006.56 1006.60 1006.66 1006.73 1006.81 1006.89 1006.97 1007.07 1007.17 1007.29 1007.46 1007.68 1007.97 1008.34 1008.79 1009.33 1009.93 1010.56 1011.20 1011.80 1012.35 1012.81 1013.18 1013.45 1013.66 1013.83 1013.98
1007.82 1007.54 1007.30 1007.07 1006.86 1006.66 1006.46 1006.27 1006.09 1005.92 1005.77 1005.65 1005.56 1005.50 1005.48 1005.49 1005.53 1005.61 1005.71 1005.83 1005.96 1006.09 1006.23 1006.36 1006.50 1006.67 1006.87 1007.12 1007.44 1007.85 1008.35 1008.95 1009.62 1010.35 1011.10 1011.83 1012.51 1013.10 1013.60 1013.99 1014.29 1014.53 1014.73
1007.21 1006.89 1006.59 1006.32 1006.06 1005.80 1005.56 1005.32 1005.09 1004.88 1004.69 1004.53 1004.42 1004.35 1004.33 1004.35 1004.43 1004.55 1004.71 1004.89 1005.09 1005.29 1005.48 1005.67 1005.86 1006.05 1006.28 1006.55 1006.89 1007.32 1007.86 1008.49 1009.23 1010.03 1010.88 1011.72 1012.53 1013.27 1013.91 1014.44 1014.85 1015.18 1015.44
1006.64 1006.27 1005.92 1005.60 1005.28 1004.97 1004.68 1004.38 1004.10 1003.84 1003.61 1003.42 1003.29 1003.21 1003.19 1003.24 1003.36 1003.53 1003.75 1004.00 1004.27 1004.54 1004.80 1005.04 1005.27 1005.50 1005.75 1006.03 1006.38 1006.81 1007.35 1008.01 1008.77 1009.63 1010.55 1011.49 1012.41 1013.27 1014.05 1014.71 1015.26 1015.69 1016.04
Thickness
5743 5742 5741 5739 5738 5737 5736 5736 5733 5732 5729 5728 5726 5725 5724 5725 5726 5728 5731 5734 5736 5737 5738 5738 5737 5737 5736 5735 5734 5733 5732 5731 5730 5729 5728 5728 5727 5726 5726 5725 5724 5724 5723
5738 5736 5734 5733 5732 5731 5731 5731 5730 5729 5727 5725 5725 5724 5724 5723 5724 5724 5727 5730 5733 5735 5736 5737 5737 5736 5736 5735 5734 5733 5732 5731 5730 5729 5728 5727 5726 5725 5725 5724 5724 5723 5723
5730 5729 5728 5726 5726 5725 5725 5725 5725 5725 5724 5724 5724 5723 5723 5722 5722 5723 5725 5727 5730 5732 5734 5736 5736 5736 5735 5735 5734 5733 5733 5731 5730 5729 5728 5727 5726 5725 5724 5724 5723 5723 5722
5723 5722 5720 5719 5719 5719 5718 5718 5718 5719 5720 5720 5721 5722 5722 5722 5722 5722 5722 5725 5727 5729 5732 5734 5735 5735 5734 5734 5734 5734 5733 5732 5730 5729 5728 5727 5726 5725 5724 5723 5723 5723 5722
5715 5714 5712 5711 5711 5711 5712 5712 5713 5713 5714 5715 5717 5719 5720 5720 5720 5720 5721 5723 5724 5727 5729 5731 5733 5733 5734 5734 5735 5734 5733 5732 5731 5729 5728 5727 5726 5725 5724 5723 5722 5722 5721
5707 5706 5705 5704 5704 5703 5704 5705 5705 5707 5708 5710 5713 5715 5716 5717 5718 5718 5720 5722 5723 5725 5727 5729 5730 5731 5733 5734 5734 5734 5734 5733 5732 5730 5729 5727 5726 5725 5724 5722 5722 5721 5720
5698 5697 5696 5696 5696 5695 5696 5697 5699 5700 5702 5704 5704 5706 5710 5713 5714 5717 5718 5720 5722 5724 5725 5727 5728 5730 5732 5733 5733 5734 5734 5734 5733 5731 5730 5728 5727 5725 5724 5722 5721 5721 5720
5688 5689 5688 5687 5687 5687 5688 5689 5690 5691 5694 5697 5696 5696 5697 5701 5708 5715 5716 5718 5720 5721 5723 5726 5727 5729 5730 5732 5733 5734 5735 5734 5734 5732 5731 5729 5727 5726 5724 5722 5721 5720 5720
5678 5679 5680 5680 5680 5680 5679 5680 5681 5682 5683 5687 5689 5689 5687 5690 5698 5707 5713 5716 5718 5719 5722 5724 5726 5728 5729 5730 5733 5735 5735 5735 5734 5733 5732 5730 5728 5726 5724 5722 5721 5720 5719
5669 5670 5671 5672 5671 5671 5671 5672 5674 5674 5675 5676 5680 5683 5685 5688 5688 5693 5702 5710 5713 5715 5718 5722 5725 5727 5728 5730 5731 5734 5735 5735 5735 5734 5733 5731 5729 5727 5725 5723 5721 5720 5719
5659 5660 5662 5662 5662 5662 5662 5663 5664 5664 5665 5667 5669 5673 5676 5680 5683 5683 5688 5697 5704 5711 5715 5719 5722 5725 5728 5729 5730 5732 5734 5735 5735 5734 5733 5731 5729 5727 5725 5723 5722 5721 5719
5649 5650 5651 5651 5652 5652 5652 5653 5654 5655 5657 5659 5661 5663 5666 5669 5673 5676 5680 5686 5692 5702 5710 5715 5718 5722 5726 5728 5730 5732 5733 5734 5734 5733 5732 5731 5730 5728 5726 5724 5723 5722 5720
5638 5638 5639 5640 5640 5641 5643 5643 5644 5646 5648 5650 5652 5655 5658 5661 5665 5669 5672 5677 5683 5693 5702 5709 5714 5719 5723 5726 5727 5729 5730 5731 5732 5732 5732 5731 5730 5728 5726 5725 5724 5723 5721
5630 5630 5629 5629 5630 5631 5633 5634 5635 5637 5639 5641 5644 5647 5649 5653 5657 5660 5664 5668 5672 5680 5689 5698 5708 5714 5718 5722 5724 5726 5727 5728 5730 5730 5730 5729 5729 5728 5726 5725 5724 5723 5722
5624 5623 5621 5620 5620 5621 5622 5623 5624 5627 5629 5632 5635 5638 5641 5645 5649 5652 5656 5660 5662 5666 5674 5687 5696 5706 5711 5715 5718 5720 5722 5724 5726 5727 5727 5727 5727 5727 5726 5725 5724 5724 5722
5615 5613 5612 5611 5610 5610 5611 5612 5613 5616 5619 5622 5625 5629 5632 5636 5640 5643 5648 5652 5656 5659 5665 5679 5687 5695 5702 5707 5710 5713 5716 5719 5720 5722 5723 5724 5724 5725 5725 5724 5724 5723 5722
5607 5604 5602 5601 5600 5600 5600 5601 5602 5604 5607 5611 5614 5618 5622 5626 5630 5634 5638 5643 5647 5652 5658 5669 5678 5686 5692 5697 5700 5703 5706 5710 5713 5716 5718 5719 5721 5722 5723 5723 5723 5723 5722
5598 5595 5593 5591 5590 5590 5590 5590 5590 5593 5594 5597 5601 5605 5610 5615 5619 5623 5628 5633 5639 5644 5650 5657 5666 5675 5682 5687 5690 5693 5696 5700 5703 5707 5711 5714 5717 5719 5720 5721 5721 5721 5720
5590 5587 5584 5582 5581 5580 5579 5579 5579 5580 5582 5584 5587 5591 5596 5600 5605 5611 5617 5623 5629 5636 5641 5648 5655 5664 5672 5676 5679 5682 5685 5689 5694 5698 5703 5707 5711 5714 5716 5718 5718 5718 5717
5583 5580 5577 5574 5572 5571 5570 5568 5568 5568 5569 5571 5574 5577 5581 5586 5592 5597 5604 5611 5618 5624 5631 5638 5645 5652 5660 5666 5671 5673 5674 5678 5683 5689 5694 5698 5703 5706 5709 5712 5713 5713 5713
5577 5573 5570 5566 5564 5561 5560 5557 5555 5555 5555 5556 5558 5561 5566 5571 5578 5584 5592 5598 5605 5612 5620 5627 5635 5641 5649 5655 5661 5665 5667 5669 5673 5679 5685 5689 5693 5696 5700 5703 5705 5706 5706
5570 5566 5562 5559 5555 5553 5552 5548 5545 5543 5541 5541 5542 5544 5548 5555 5563 5570 5579 5587 5594 5601 5608 5616 5624 5632 5641 5649 5654 5658 5660 5664 5666 5671 5676 5676 5682 5685 5689 5693 5695 5697 5698
5564 5559 5555 5551 5548 5545 5542 5538 5535 5532 5529 5528 5528 5530 5535 5542 5547 5554 5563 5573 5582 5591 5600 5607 5615 5624 5633 5642 5648 5650 5655 5658 5662 5665 5666 5665 5668 5672 5677 5681 5685 5687 5689
5557 5553 5549 5545 5541 5539 5536 5531 5527 5524 5520 5518 5518 5518 5520 5525 5531 5538 5545 5555 5566 5577 5589 5598 5607 5615 5624 5633 5641 5647 5650 5649 5651 5654 5659 5657 5657 5660 5664 5669 5672 5676 5679
5552 5548 5544 5540 5536 5533 5529 5525 5520 5515 5512 5510 5509 5509 5510 5514 5520 5525 5532 5541 5552 5562 5573 5584 5594 5603 5613 5622 5631 5635 5637 5640 5642 5643 5648 5651 5649 5650 5652 5655 5660 5664 5667
5548 5544 5540 5535 5531 5527 5523 5519 5514 5508 5504 5502 5500 5500 5503 5505 5510 5514 5521 5530 5539 5549 5560 5570 5580 5591 5601 5611 5621 5630 5635 5637 5639 5638 5641 5644 5643 5644 5643 5643 5648 5652 5655